Location: Cheraw
(34.6968°N, 79.8912°W)
Time: 22:38:43
(UTC+00:00)

N. Korean satellite - Pass Details

Date: 24 August 2022
Orbit: 428 x 468 km, 97.3° (Epoch: 24 September)

Event Time Altitude Azimuth Distance (km) Brightness Sun altitude
Rises 10:11:17 0° 18° (NNE) 2,518 10.8 -7.8°
Reaches altitude 10° 10:13:25 10° 24° (NNE) 1,631 9.9 -7.4°
Maximum altitude 10:16:48 46° 99° (E) 634 7.7 -6.7°
Drops below altitude 10° 10:20:07 10° 174° (S) 1,597 9.1 -6.1°
Sets 10:22:11 0° 180° (S) 2,458 10.0 -5.7°
